Simultaneous Nadir Overpasses (SNOs) Predictions

Prediction of SNOs between NOAA-15 and METOP-C Satellite Orbit:

Table of predicted SNOs for the next 14.0 days since TLE Epoch: 11/11/2024
Index Date (NOAA-15) Time (NOAA-15) Lat,Lon (NOAA-15) SZA (NOAA-15 ) Date (METOP-C) Time (METOP-C) Lat,Lon (METOP-C) SZA (METOP-C ) Distance(km) Time Diff (sec)
1 11/24/2024 09:35:42 -81.01,-105.72 76.20 11/24/2024 09:34:31 -80.97,-107.49 76.43 31.29 71
2 11/24/2024 10:26:15 81.04, 61.10 103.78 11/24/2024 10:25:06 81.03, 61.21 103.76 2.32 69
3 11/24/2024 11:16:41 -81.03,-131.35 76.21 11/24/2024 11:15:47 -81.04,-131.22 76.21 2.49 54
4 11/24/2024 12:07:13 81.02, 36.19 103.82 11/24/2024 12:06:27 81.03, 36.03 103.79 3.22 46
5 11/24/2024 12:57:40 -81.03,-156.62 76.20 11/24/2024 12:57:09 -81.03,-156.77 76.22 2.58 31
6 11/24/2024 13:48:13 81.04, 10.56 103.81 11/24/2024 13:47:49 81.02, 10.47 103.78 2.25 24
7 11/24/2024 14:38:39 -81.03, 178.10 76.18 11/24/2024 14:38:30 -81.03, 178.04 76.19 1.12 9
8 11/24/2024 15:29:12 81.04, -14.71 103.82 11/24/2024 15:29:10 81.03, -14.72 103.81 1.13 2
9 11/24/2024 16:19:38 -81.03, 152.83 76.17 11/24/2024 16:19:51 -81.04, 152.85 76.16 0.94 13
10 11/24/2024 17:10:11 81.04, -39.99 103.83 11/24/2024 17:10:31 81.04, -39.90 103.84 1.53 20
11 11/24/2024 18:00:37 -81.03, 127.56 76.16 11/24/2024 18:01:12 -81.05, 127.67 76.13 2.36 35
12 11/24/2024 18:51:10 81.04, -65.26 103.84 11/24/2024 18:51:52 81.04, -65.09 103.87 2.87 42
13 11/24/2024 19:41:36 -81.03, 102.28 76.15 11/24/2024 19:42:34 -81.04, 102.11 76.14 2.99 58



Historial Predications of SNOs between NOAA-15 and METOP-C
